Terminal Aerodrome Forecast
Issued by NWS

Home | Current Version | Previous Version | Text Only | Print | Product List | Glossary On
Versions: 1 2 3 4 5 6 7 8 9 10 11 12 13 14 15 16 17 18 19 20 21 22 23 24 25 26 27 28 29 30 31 32 33 34 35 36 37 38 39 40
000
FTUS45 KSLC 031209 AAA
TAF36U
TAF AMD
K36U 031209Z 0312/0412 VRB04KT P6SM VCSH SCT015 BKN040
      TEMPO 0314/0316 4SM -SN BR BKN015 OVC030
     FM031600 28008KT 3/4SM -SN BR VV008
     FM031900 30010KT 2SM -SHSN BR BKN015 OVC020
     FM032100 30008KT P6SM VCSH BKN035
     FM040200 VRB04KT P6SM FEW040 SCT060=

USA.gov is the U.S. government's official web portal to all federal, state and local government web resources and services.